Location: Harbor View
(36.2448°N, 86.5797°W)
Time: 08:44:14
(UTC+00:00)

OAO 2 Rocket - Pass Details

Date: 29 October 2020
Orbit: 676 x 745 km, 35.0° (Epoch: 04 December)

Event Time Altitude Azimuth Distance (km) Brightness Sun altitude
Rises 23:35:29 0° 261° (W) 3,075 9.1 -9.2°
Reaches altitude 10° 23:37:55 10° 260° (W) 2,147 7.5 -9.7°
Maximum altitude 23:42:55 76° 175° (S) 707 3.3 -10.7°
Enters shadow 23:46:57 15° 91° (E) 1,775 4.8 -11.5°
